#�ϑ�����,���ϕ���,���ϕ���,�ő啗��,�ő啗����������,�ő�u�ԕ���,�ő�u�ԕ�����������
#(�N����),(m/s)   ,(16����),(m/s)   ,(16����)        ,(m/s)       ,(16����)            
2012/4/30 0:01,3.2,2,3.2,2,5,3
2012/4/30 0:02,3.1,2,3.3,2,4.8,3
2012/4/30 0:03,3.1,2,3.1,2,3.9,3
2012/4/30 0:04,3,2,3.1,2,3.5,3
2012/4/30 0:05,3,2,3,2,5.5,3
2012/4/30 0:06,3,2,3,2,4.1,3
2012/4/30 0:07,2.9,3,3,2,4.5,2
2012/4/30 0:08,2.9,2,2.9,2,5.5,3
2012/4/30 0:09,2.8,2,2.9,2,4.7,2
2012/4/30 0:10,2.6,2,2.7,2,4.2,2
2012/4/30 0:11,2.6,2,2.6,2,6.4,3
2012/4/30 0:12,2.7,2,2.7,2,3.8,3
2012/4/30 0:13,2.8,2,2.8,2,5.1,3
2012/4/30 0:14,2.9,2,2.9,2,6.1,3
2012/4/30 0:15,2.8,2,2.9,2,3.9,3
2012/4/30 0:16,2.8,2,2.8,2,3.6,2
2012/4/30 0:17,2.8,2,2.8,3,4.4,2
2012/4/30 0:18,2.8,2,2.8,2,4.5,2
2012/4/30 0:19,2.8,2,2.8,2,3.3,2
2012/4/30 0:20,2.9,2,2.9,2,4.7,2
2012/4/30 0:21,2.8,2,2.9,2,3.8,2
2012/4/30 0:22,2.9,2,2.9,2,6.4,4
2012/4/30 0:23,2.8,2,2.9,2,4.2,3
2012/4/30 0:24,2.7,2,2.8,2,3.8,3
2012/4/30 0:25,2.8,2,2.8,2,5.1,3
2012/4/30 0:26,2.9,2,2.9,2,4.4,3
2012/4/30 0:27,3,2,3,2,5.6,2
2012/4/30 0:28,2.9,2,3,2,4.8,3
2012/4/30 0:29,2.8,3,2.9,2,3.7,3
2012/4/30 0:30,2.8,3,2.9,2,4.4,3
2012/4/30 0:31,2.8,3,2.8,2,3.8,3
2012/4/30 0:32,2.6,3,2.8,2,4.2,3
2012/4/30 0:33,2.7,3,2.7,2,4.5,2
2012/4/30 0:34,2.7,3,2.7,2,4.7,3
2012/4/30 0:35,2.6,3,2.7,2,3.3,3
2012/4/30 0:36,2.5,3,2.6,2,5.2,4
2012/4/30 0:37,2.6,3,2.6,2,4.8,4
2012/4/30 0:38,2.8,3,2.8,2,5,3
2012/4/30 0:39,2.9,3,2.9,3,4.8,3
2012/4/30 0:40,3,3,3,3,4.1,3
2012/4/30 0:41,3,3,3,3,4.4,4
2012/4/30 0:42,3.1,3,3.1,3,4.1,3
2012/4/30 0:43,2.9,3,3.1,3,3.6,2
2012/4/30 0:44,2.8,3,2.9,3,3.5,3
2012/4/30 0:45,2.9,3,2.9,3,3.8,2
2012/4/30 0:46,2.9,3,3,3,4.4,3
2012/4/30 0:47,2.8,2,2.9,3,4.3,2
2012/4/30 0:48,2.7,3,2.8,3,4.3,3
2012/4/30 0:49,2.7,3,2.7,3,4.3,3
2012/4/30 0:50,2.6,2,2.6,3,4.8,4
2012/4/30 0:51,2.7,2,2.7,3,5.7,3
2012/4/30 0:52,2.7,2,2.7,3,4.7,2
2012/4/30 0:53,2.8,2,2.8,3,3.8,3
2012/4/30 0:54,2.8,2,2.8,3,4.9,3
2012/4/30 0:55,2.9,3,2.9,3,5.8,3
2012/4/30 0:56,3.1,3,3.1,3,5,4
2012/4/30 0:57,3.1,3,3.1,3,4.5,3
2012/4/30 0:58,3,3,3.1,3,5,3
2012/4/30 0:59,3.1,3,3.1,3,4.5,2
2012/4/30 1:00,3.1,3,3.1,3,4.3,3
2012/4/30 1:01,3,2,3.1,3,6.1,3
2012/4/30 1:02,3.1,2,3.1,3,5.5,3
2012/4/30 1:03,3.2,3,3.2,3,4.4,4
2012/4/30 1:04,3.3,3,3.4,3,5,4
2012/4/30 1:05,3.4,3,3.4,3,5.8,2
2012/4/30 1:06,3.4,3,3.4,3,5.2,3
2012/4/30 1:07,3.5,3,3.5,3,5.1,3
2012/4/30 1:08,3.5,3,3.6,3,4.2,3
2012/4/30 1:09,3.5,3,3.5,3,4.7,2
2012/4/30 1:10,3.6,3,3.6,3,5.4,4
2012/4/30 1:11,3.7,3,3.7,3,5.1,3
2012/4/30 1:12,3.6,3,3.7,3,4.5,4
2012/4/30 1:13,3.5,3,3.6,3,4.2,3
2012/4/30 1:14,3.5,3,3.5,3,5.2,3
2012/4/30 1:15,3.5,3,3.5,3,6.2,3
2012/4/30 1:16,3.3,3,3.4,3,4.7,2
2012/4/30 1:17,3.2,3,3.3,3,4.1,3
2012/4/30 1:18,3.2,2,3.2,3,5.2,3
2012/4/30 1:19,3.1,2,3.2,3,3.8,3
2012/4/30 1:20,3.1,3,3.1,3,4.4,4
2012/4/30 1:21,3,3,3.1,3,4.2,4
2012/4/30 1:22,3,3,3,3,5.5,3
2012/4/30 1:23,3.2,3,3.2,3,5.8,4
2012/4/30 1:24,3.1,3,3.2,3,3.6,3
2012/4/30 1:25,2.9,3,3.1,3,3.8,3
2012/4/30 1:26,2.9,3,3,3,4.2,3
2012/4/30 1:27,2.8,3,2.9,3,2.7,3
2012/4/30 1:28,2.7,3,2.9,2,3.7,4
2012/4/30 1:29,2.6,3,2.7,3,3.2,16
2012/4/30 1:30,2.7,3,2.7,3,6.1,3
2012/4/30 1:31,2.8,3,2.8,3,5.4,2
2012/4/30 1:32,2.8,3,2.8,3,6.5,2
2012/4/30 1:33,2.8,3,2.8,3,6.3,3
2012/4/30 1:34,3,2,3,3,7.1,3
2012/4/30 1:35,3.2,2,3.2,2,6.8,3
2012/4/30 1:36,3.2,2,3.2,2,4.8,2
2012/4/30 1:37,3.2,2,3.2,2,4.7,2
2012/4/30 1:38,3.3,2,3.3,2,4.4,2
2012/4/30 1:39,3.4,2,3.4,2,4.2,2
2012/4/30 1:40,3.2,2,3.4,2,4.4,3
2012/4/30 1:41,3.4,2,3.4,2,6.2,3
2012/4/30 1:42,3.4,2,3.4,2,6.4,2
2012/4/30 1:43,3.2,2,3.4,2,5.2,3
2012/4/30 1:44,3,2,3.2,2,5.2,2
2012/4/30 1:45,3,2,3,2,6.4,3
2012/4/30 1:46,3.1,2,3.1,2,6,3
2012/4/30 1:47,3.2,2,3.2,2,7.1,2
2012/4/30 1:48,3.4,2,3.4,2,7,2
2012/4/30 1:49,3.5,2,3.5,2,6.7,3
2012/4/30 1:50,3.6,2,3.6,2,4.3,2
2012/4/30 1:51,3.5,2,3.6,2,5.4,1
2012/4/30 1:52,3.4,2,3.5,2,5.5,3
2012/4/30 1:53,3.5,2,3.5,2,6.1,3
2012/4/30 1:54,3.5,2,3.5,2,5.2,2
2012/4/30 1:55,3.4,2,3.5,2,4.3,1
2012/4/30 1:56,3.4,2,3.4,2,6,3
2012/4/30 1:57,3.4,2,3.5,2,6.8,3
2012/4/30 1:58,3.3,2,3.4,2,5.5,3
2012/4/30 1:59,3.3,2,3.3,2,6,3
2012/4/30 2:00,3.4,2,3.4,2,6,3
2012/4/30 2:01,3.4,2,3.4,2,4.4,3
2012/4/30 2:02,3.4,2,3.4,2,5.4,3
2012/4/30 2:03,3.5,2,3.5,2,5.8,3
2012/4/30 2:04,3.5,2,3.6,2,5.6,3
2012/4/30 2:05,3.5,2,3.5,2,4.9,3
2012/4/30 2:06,3.5,2,3.6,2,5,3
2012/4/30 2:07,3.4,2,3.5,2,4.9,3
2012/4/30 2:08,3.5,3,3.5,2,4.5,3
2012/4/30 2:09,3.4,3,3.5,2,4.7,4
2012/4/30 2:10,3.1,3,3.3,2,3.2,3
2012/4/30 2:11,3.1,3,3.1,2,4.2,2
2012/4/30 2:12,3.1,3,3.1,2,4.3,3
2012/4/30 2:13,2.9,3,3.1,2,3.3,2
2012/4/30 2:14,2.8,3,2.9,2,4.5,1
2012/4/30 2:15,3,3,3,2,5.4,3
2012/4/30 2:16,2.9,3,3,2,4.7,2
2012/4/30 2:17,2.9,3,2.9,2,5.2,2
2012/4/30 2:18,2.8,3,2.9,3,4.3,3
2012/4/30 2:19,3,2,3,3,6.7,3
2012/4/30 2:20,3.3,3,3.3,3,6.3,5
2012/4/30 2:21,3.4,3,3.4,3,6.1,2
2012/4/30 2:22,3.4,3,3.4,3,6.5,4
2012/4/30 2:23,3.6,3,3.6,3,5.8,3
2012/4/30 2:24,3.6,3,3.6,3,5.1,3
2012/4/30 2:25,3.5,3,3.6,3,5.4,3
2012/4/30 2:26,3.6,3,3.6,3,6.3,3
2012/4/30 2:27,3.6,3,3.6,3,5.6,3
2012/4/30 2:28,3.7,3,3.7,3,6.1,3
2012/4/30 2:29,3.6,3,3.7,3,4.5,3
2012/4/30 2:30,3.5,3,3.6,3,6.3,3
2012/4/30 2:31,3.4,3,3.5,3,6.2,2
2012/4/30 2:32,3.4,3,3.5,3,5.2,3
2012/4/30 2:33,3.5,3,3.5,3,6.8,3
2012/4/30 2:34,3.5,3,3.5,3,4.2,4
2012/4/30 2:35,3.6,3,3.6,3,5,3
2012/4/30 2:36,3.5,3,3.6,3,5.1,4
2012/4/30 2:37,3.5,3,3.5,3,5.2,4
2012/4/30 2:38,3.5,3,3.5,3,5.2,3
2012/4/30 2:39,3.5,3,3.5,3,4.2,4
2012/4/30 2:40,3.4,3,3.5,3,4.7,3
2012/4/30 2:41,3.4,3,3.5,3,4.7,3
2012/4/30 2:42,3.4,3,3.4,3,4.5,2
2012/4/30 2:43,3.2,3,3.4,3,4.1,3
2012/4/30 2:44,3.2,3,3.2,3,4.1,3
2012/4/30 2:45,3,3,3.2,3,3.5,4
2012/4/30 2:46,3.1,3,3.1,3,4.3,3
2012/4/30 2:47,3,3,3.1,3,4.4,4
2012/4/30 2:48,2.9,3,3,3,4.8,4
2012/4/30 2:49,2.9,3,2.9,3,4.8,3
2012/4/30 2:50,2.9,3,2.9,3,4.1,4
2012/4/30 2:51,2.8,3,2.9,3,4.1,3
2012/4/30 2:52,2.7,3,2.8,3,3.2,4
2012/4/30 2:53,2.9,3,2.9,3,5.1,3
2012/4/30 2:54,3,3,3,3,5.6,2
2012/4/30 2:55,3.2,3,3.2,3,5.6,4
2012/4/30 2:56,3.1,3,3.2,3,4.9,3
2012/4/30 2:57,3.2,3,3.2,3,4.8,3
2012/4/30 2:58,3.2,3,3.2,3,5.1,3
2012/4/30 2:59,3.2,3,3.2,3,3.8,2
2012/4/30 3:00,3.1,3,3.2,3,3.5,4
2012/4/30 3:01,3,3,3.1,3,2.7,5
2012/4/30 3:02,3.1,4,3.1,3,3.7,3
2012/4/30 3:03,2.9,4,3.1,3,4.1,3
2012/4/30 3:04,2.8,4,2.9,3,2.7,5
2012/4/30 3:05,2.5,4,2.7,3,2.1,3
2012/4/30 3:06,2.4,4,2.5,3,2.5,3
2012/4/30 3:07,2.3,4,2.4,3,2.4,3
2012/4/30 3:08,2.1,3,2.2,3,2.9,3
2012/4/30 3:09,2.1,3,2.1,3,3,3
2012/4/30 3:10,2,3,2.1,3,2.7,3
2012/4/30 3:11,2,3,2,3,2.6,2
2012/4/30 3:12,1.9,3,2,3,3.5,2
2012/4/30 3:13,1.9,3,1.9,4,3.7,3
2012/4/30 3:14,2,3,2,4,4.3,3
2012/4/30 3:15,2.1,2,2.1,4,4.1,3
2012/4/30 3:16,2.3,2,2.3,4,4.4,2
2012/4/30 3:17,2.4,2,2.4,2,4.3,3
2012/4/30 3:18,2.6,2,2.6,2,4.5,2
2012/4/30 3:19,2.7,2,2.7,2,4.9,2
2012/4/30 3:20,2.9,2,2.9,2,4.4,3
2012/4/30 3:21,2.9,2,2.9,2,4.1,16
2012/4/30 3:22,3.1,2,3.1,2,5.5,3
2012/4/30 3:23,3.2,2,3.2,3,5,4
2012/4/30 3:24,3.2,3,3.2,3,4.2,3
2012/4/30 3:25,3.2,3,3.2,3,3.8,3
2012/4/30 3:26,3.1,3,3.2,3,3.9,4
2012/4/30 3:27,3,3,3.1,3,4.2,3
2012/4/30 3:28,3.1,3,3.1,3,5.5,3
2012/4/30 3:29,3.1,3,3.1,3,4.8,4
2012/4/30 3:30,3,3,3.1,3,3.7,3
2012/4/30 3:31,2.8,3,3,3,3.1,3
2012/4/30 3:32,2.6,3,2.8,3,3.5,2
2012/4/30 3:33,2.6,3,2.6,2,3.9,2
2012/4/30 3:34,2.5,3,2.6,3,3,3
2012/4/30 3:35,2.4,3,2.5,3,2.9,2
2012/4/30 3:36,2.4,2,2.4,3,4.7,16
2012/4/30 3:37,2.4,2,2.4,3,4.1,3
2012/4/30 3:38,2.4,2,2.4,3,5.2,3
2012/4/30 3:39,2.4,2,2.4,3,4.8,3
2012/4/30 3:40,2.4,2,2.4,3,3.9,3
2012/4/30 3:41,2.5,2,2.5,3,3.2,2
2012/4/30 3:42,2.6,2,2.6,3,3.8,3
2012/4/30 3:43,2.5,2,2.6,3,3.5,3
2012/4/30 3:44,2.5,2,2.5,2,2,3
2012/4/30 3:45,2.5,2,2.5,2,3.8,1
2012/4/30 3:46,2.4,2,2.5,2,3.1,2
2012/4/30 3:47,2.4,2,2.4,2,3.2,3
2012/4/30 3:48,2.3,2,2.4,2,3.5,1
2012/4/30 3:49,2.2,2,2.3,2,2.7,2
2012/4/30 3:50,2.1,2,2.1,2,4.4,3
2012/4/30 3:51,2.2,2,2.2,2,4.5,4
2012/4/30 3:52,2.3,2,2.3,2,4.4,3
2012/4/30 3:53,2.3,2,2.3,2,4.1,3
2012/4/30 3:54,2.4,3,2.4,2,3.5,4
2012/4/30 3:55,2.4,3,2.5,2,2.5,4
2012/4/30 3:56,2.3,3,2.4,3,2.5,3
2012/4/30 3:57,2.3,3,2.3,3,3.8,2
2012/4/30 3:58,2.3,3,2.3,3,2.5,1
2012/4/30 3:59,2.3,3,2.3,3,3.7,3
2012/4/30 4:00,2.4,3,2.4,3,3.5,3
2012/4/30 4:01,2.4,3,2.4,3,4.4,3
2012/4/30 4:02,2.3,3,2.4,3,4.4,3
2012/4/30 4:03,2.3,3,2.3,3,3.2,3
2012/4/30 4:04,2.3,3,2.3,3,3.7,3
2012/4/30 4:05,2.3,2,2.3,3,3.5,4
2012/4/30 4:06,2.4,2,2.4,3,2.7,2
2012/4/30 4:07,2.4,2,2.4,3,3.5,3
2012/4/30 4:08,2.4,2,2.4,3,2.9,3
2012/4/30 4:09,2.3,2,2.4,3,4.1,1
2012/4/30 4:10,2.2,2,2.3,3,4.9,2
2012/4/30 4:11,2.1,2,2.2,3,3.5,3
2012/4/30 4:12,2,2,2.1,2,3.2,2
2012/4/30 4:13,2,2,2,2,3.7,1
2012/4/30 4:14,2,2,2,2,2.7,3
2012/4/30 4:15,2,2,2,2,3.8,3
2012/4/30 4:16,2.1,2,2.1,2,4.1,3
2012/4/30 4:17,2.2,2,2.2,2,4.1,3
2012/4/30 4:18,2.3,2,2.3,2,4.3,2
2012/4/30 4:19,2.2,2,2.3,2,3.8,3
2012/4/30 4:20,2.2,2,2.3,2,3.9,3
2012/4/30 4:21,2.2,2,2.2,2,3.1,3
2012/4/30 4:22,2.2,2,2.2,2,3.9,2
2012/4/30 4:23,2.3,2,2.3,2,3.5,3
2012/4/30 4:24,2.3,2,2.3,2,2.9,2
2012/4/30 4:25,2.3,2,2.3,2,4.2,4
2012/4/30 4:26,2.3,2,2.4,2,3.6,3
2012/4/30 4:27,2.3,2,2.3,2,4.5,3
2012/4/30 4:28,2.4,2,2.4,2,5.7,3
2012/4/30 4:29,2.5,2,2.5,2,4.2,2
2012/4/30 4:30,2.5,2,2.5,2,3.9,3
2012/4/30 4:31,2.7,2,2.7,2,5.1,2
2012/4/30 4:32,2.7,2,2.7,2,3.8,1
2012/4/30 4:33,2.7,2,2.7,2,4.4,3
2012/4/30 4:34,2.8,2,2.8,2,4.2,1
2012/4/30 4:35,2.6,2,2.8,2,3.1,2
2012/4/30 4:36,2.5,2,2.6,2,2.6,2
2012/4/30 4:37,2.4,2,2.5,2,3,1
2012/4/30 4:38,2.2,2,2.4,2,3.3,3
2012/4/30 4:39,2.2,2,2.2,2,3,1
2012/4/30 4:40,2.1,2,2.2,2,2.9,1
2012/4/30 4:41,1.9,2,2.1,2,3,1
2012/4/30 4:42,1.9,2,2,2,2.7,2
2012/4/30 4:43,1.9,2,1.9,2,3.1,2
2012/4/30 4:44,1.8,2,1.9,2,2.5,16
2012/4/30 4:45,1.9,2,1.9,2,4.5,1
2012/4/30 4:46,2,2,2,2,5.4,1
2012/4/30 4:47,2,2,2,2,3.1,1
2012/4/30 4:48,2,2,2,2,3.3,3
2012/4/30 4:49,2.1,2,2.1,2,3.7,2
2012/4/30 4:50,2.1,2,2.1,2,3.5,2
2012/4/30 4:51,2.2,2,2.2,2,3.9,3
2012/4/30 4:52,2.3,2,2.3,2,4.1,2
2012/4/30 4:53,2.3,2,2.3,2,3,2
2012/4/30 4:54,2.3,2,2.3,2,3.6,1
2012/4/30 4:55,2.4,2,2.4,2,5.1,2
2012/4/30 4:56,2.5,2,2.5,2,5.4,2
2012/4/30 4:57,2.5,2,2.5,2,4.2,2
2012/4/30 4:58,2.7,2,2.7,2,4.4,5
2012/4/30 4:59,2.7,2,2.7,2,3.8,3
2012/4/30 5:00,2.7,2,2.7,2,2.9,3
2012/4/30 5:01,2.7,3,2.7,2,3.2,3
2012/4/30 5:02,2.7,3,2.7,2,3.7,4
2012/4/30 5:03,2.7,3,2.7,2,3.3,3
2012/4/30 5:04,2.8,3,2.8,3,3.9,3
2012/4/30 5:05,2.7,3,2.8,3,3.7,2
2012/4/30 5:06,2.6,3,2.7,3,4.4,2
2012/4/30 5:07,2.7,3,2.7,3,4.8,3
2012/4/30 5:08,2.7,3,2.7,3,4.7,3
2012/4/30 5:09,2.8,3,2.8,3,6.7,2
2012/4/30 5:10,2.8,3,2.8,3,5,3
2012/4/30 5:11,2.8,3,2.8,3,4.2,2
2012/4/30 5:12,2.8,3,2.8,3,3.7,3
2012/4/30 5:13,2.8,3,2.8,3,4.4,4
2012/4/30 5:14,2.9,3,2.9,3,5.1,3
2012/4/30 5:15,3,3,3,3,5.8,3
2012/4/30 5:16,3.2,3,3.2,3,5.8,3
2012/4/30 5:17,3.1,3,3.2,3,4.7,2
2012/4/30 5:18,3.1,3,3.1,3,5.1,1
2012/4/30 5:19,3,3,3.1,3,4.4,3
2012/4/30 5:20,3,3,3,3,4.4,3
2012/4/30 5:21,3.1,3,3.1,3,4.3,3
2012/4/30 5:22,3.2,3,3.2,3,4.2,4
2012/4/30 5:23,3.3,3,3.3,3,4.9,3
2012/4/30 5:24,3.3,3,3.3,3,4.8,3
2012/4/30 5:25,3.2,3,3.3,3,4.3,3
2012/4/30 5:26,3.1,3,3.2,3,4.4,3
2012/4/30 5:27,3,2,3.1,3,4.3,3
2012/4/30 5:28,2.9,3,3,3,4.2,1
2012/4/30 5:29,2.8,2,2.9,3,3.2,3
2012/4/30 5:30,2.8,2,2.8,3,3.6,3
2012/4/30 5:31,2.7,2,2.7,3,4.2,2
2012/4/30 5:32,2.6,2,2.7,3,3.2,2
2012/4/30 5:33,2.4,2,2.6,3,3.7,1
2012/4/30 5:34,2.3,2,2.5,3,3,1
2012/4/30 5:35,2.3,2,2.3,3,3.1,1
2012/4/30 5:36,2.1,2,2.2,3,2.2,2
2012/4/30 5:37,2,2,2,2,3.1,1
2012/4/30 5:38,1.9,2,2,3,2.4,3
2012/4/30 5:39,1.9,2,2,2,2.5,2
2012/4/30 5:40,1.9,2,1.9,2,3.6,3
2012/4/30 5:41,1.8,2,1.9,2,3,3
2012/4/30 5:42,1.8,2,1.8,2,3.2,16
2012/4/30 5:43,1.8,2,1.8,2,2.9,3
2012/4/30 5:44,1.9,2,1.9,2,3.6,3
2012/4/30 5:45,1.8,2,1.9,2,3,3
2012/4/30 5:46,1.8,2,1.8,2,2.5,3
2012/4/30 5:47,1.8,2,1.8,2,3.1,16
2012/4/30 5:48,1.8,2,1.8,2,2.7,1
2012/4/30 5:49,1.9,2,1.9,2,2.9,1
2012/4/30 5:50,1.8,2,1.9,2,3,2
2012/4/30 5:51,2,2,2,2,4.8,3
2012/4/30 5:52,2.3,2,2.3,2,5.1,3
2012/4/30 5:53,2.3,2,2.3,2,4.3,4
2012/4/30 5:54,2.2,2,2.3,2,2.9,5
2012/4/30 5:55,2.2,2,2.2,2,2,5
2012/4/30 5:56,2.1,2,2.2,2,2,1
2012/4/30 5:57,2.2,3,2.2,2,2.7,3
2012/4/30 5:58,2.1,3,2.2,2,1.8,3
2012/4/30 5:59,2.1,3,2.1,2,2.2,2
2012/4/30 6:00,2,3,2.1,2,2,3
2012/4/30 6:01,1.8,3,2,2,2.1,3
2012/4/30 6:02,1.5,3,1.8,2,3.2,3
2012/4/30 6:03,1.5,3,1.5,2,3.2,4
2012/4/30 6:04,1.5,2,1.5,2,2.6,3
2012/4/30 6:05,1.6,3,1.6,2,2.5,3
2012/4/30 6:06,1.6,3,1.6,3,2.5,3
2012/4/30 6:07,1.6,3,1.6,3,2.4,3
2012/4/30 6:08,1.6,3,1.6,3,0.8,2
2012/4/30 6:09,1.6,3,1.6,3,1.6,4
2012/4/30 6:10,1.5,3,1.5,3,2.1,2
2012/4/30 6:11,1.6,3,1.6,3,3,3
2012/4/30 6:12,1.6,3,1.6,2,2.5,2
2012/4/30 6:13,1.5,3,1.6,2,1.6,1
2012/4/30 6:14,1.3,3,1.4,2,1.8,3
2012/4/30 6:15,1.3,3,1.3,3,2.1,3
2012/4/30 6:16,1.3,3,1.3,3,2.1,3
2012/4/30 6:17,1.3,3,1.3,3,2.9,3
2012/4/30 6:18,1.4,3,1.5,3,3.5,3
2012/4/30 6:19,1.4,2,1.5,3,1.5,16
2012/4/30 6:20,1.5,2,1.5,3,2.5,2
2012/4/30 6:21,1.5,2,1.5,3,3.6,3
2012/4/30 6:22,1.5,2,1.5,3,2.6,4
2012/4/30 6:23,1.5,3,1.5,3,2.6,4
2012/4/30 6:24,1.6,3,1.6,3,3.5,2
2012/4/30 6:25,1.6,2,1.7,3,3.2,3
2012/4/30 6:26,1.7,2,1.7,3,2.2,3
2012/4/30 6:27,1.6,2,1.7,3,2.2,2
2012/4/30 6:28,1.5,2,1.6,3,1.6,1
2012/4/30 6:29,1.5,2,1.5,3,1.1,1
2012/4/30 6:30,1.5,2,1.5,3,2.5,1
2012/4/30 6:31,1.4,2,1.5,3,2.1,1
2012/4/30 6:32,1.3,2,1.4,3,1.4,2
2012/4/30 6:33,1.4,2,1.4,3,2.6,1
2012/4/30 6:34,1.3,2,1.4,3,3.5,2
2012/4/30 6:35,1.4,2,1.4,2,3.5,1
2012/4/30 6:36,1.4,2,1.4,2,3.5,1
2012/4/30 6:37,1.5,2,1.5,2,4.1,2
2012/4/30 6:38,1.8,2,1.8,2,4.2,2
2012/4/30 6:39,1.9,2,1.9,2,4.7,2
2012/4/30 6:40,2,2,2,2,3.6,2
2012/4/30 6:41,1.9,2,2,2,2.4,1
2012/4/30 6:42,2,2,2,2,2.5,2
2012/4/30 6:43,2.1,2,2.1,2,3.7,3
2012/4/30 6:44,2.2,2,2.2,2,3.9,3
2012/4/30 6:45,2.2,2,2.2,2,3.7,3
2012/4/30 6:46,2.2,2,2.2,2,3.3,2
2012/4/30 6:47,2.2,2,2.2,2,4.2,1
2012/4/30 6:48,2.1,2,2.2,2,2.9,2
2012/4/30 6:49,2.1,2,2.1,2,2.6,4
2012/4/30 6:50,2.1,2,2.1,2,2.6,2
2012/4/30 6:51,2.2,2,2.2,2,2.4,2
2012/4/30 6:52,2.2,3,2.2,2,2.2,3
2012/4/30 6:53,2.2,3,2.2,2,2.5,2
2012/4/30 6:54,2,2,2.2,2,2.1,3
2012/4/30 6:55,1.8,2,2,2,1.4,1
2012/4/30 6:56,1.9,2,1.9,2,3.2,4
2012/4/30 6:57,1.8,2,1.9,2,3.5,3
2012/4/30 6:58,1.8,2,1.9,2,3.6,2
2012/4/30 6:59,1.8,2,1.8,2,2.4,3
2012/4/30 7:00,1.8,2,1.8,2,4.4,2
2012/4/30 7:01,1.8,2,1.8,2,3.6,3
2012/4/30 7:02,1.9,2,1.9,3,4.2,2
2012/4/30 7:03,2,2,2,3,4.4,1
2012/4/30 7:04,2.2,2,2.2,2,4.7,1
2012/4/30 7:05,2.2,2,2.2,2,2.5,3
2012/4/30 7:06,2.1,2,2.2,2,1.5,2
2012/4/30 7:07,1.9,2,2.1,2,1.1,4
2012/4/30 7:08,1.8,3,1.9,2,1.9,5
2012/4/30 7:09,1.7,3,1.8,2,1.8,5
2012/4/30 7:10,1.5,2,1.7,2,0.6,16
2012/4/30 7:11,1.3,2,1.5,2,0.5,2
2012/4/30 7:12,1.1,2,1.3,2,0.1,2
2012/4/30 7:13,0.9,2,1.1,2,1.6,16
2012/4/30 7:14,0.8,2,0.9,2,2.4,16
2012/4/30 7:15,0.8,2,0.8,2,2,2
2012/4/30 7:16,0.8,2,0.8,2,1.6,2
2012/4/30 7:17,0.9,2,0.9,2,2.1,3
2012/4/30 7:18,0.8,1,0.9,3,1.5,2
2012/4/30 7:19,0.9,1,0.9,3,1.9,3
2012/4/30 7:20,1.1,2,1.1,2,3.5,3
2012/4/30 7:21,1.4,2,1.4,2,4.1,3
2012/4/30 7:22,1.7,2,1.7,2,4.1,3
2012/4/30 7:23,1.8,2,1.8,2,3.3,2
2012/4/30 7:24,1.9,2,1.9,2,3,2
2012/4/30 7:25,1.9,2,1.9,2,3,2
2012/4/30 7:26,2,2,2,2,2.4,3
2012/4/30 7:27,2.1,2,2.1,2,2.4,3
2012/4/30 7:28,2.2,3,2.2,3,2.9,4
2012/4/30 7:29,2.2,3,2.2,3,2,3
2012/4/30 7:30,2.1,3,2.2,3,1.8,3
2012/4/30 7:31,1.9,3,2.1,3,1.6,3
2012/4/30 7:32,1.6,3,1.9,3,1,2
2012/4/30 7:33,1.5,3,1.6,3,1.4,1
2012/4/30 7:34,1.4,3,1.5,3,0.9,3
2012/4/30 7:35,1.3,3,1.4,3,1.5,3
2012/4/30 7:36,1.3,3,1.3,3,2.4,2
2012/4/30 7:37,1.3,3,1.3,3,2.2,1
2012/4/30 7:38,1.2,2,1.3,3,2.9,3
2012/4/30 7:39,1.2,2,1.2,3,2.5,3
2012/4/30 7:40,1.4,2,1.4,3,3.8,2
2012/4/30 7:41,1.6,2,1.6,3,4.3,3
2012/4/30 7:42,1.8,2,1.8,2,3.7,3
2012/4/30 7:43,2,2,2,2,3.5,3
2012/4/30 7:44,2.1,2,2.1,2,2.5,1
2012/4/30 7:45,2.2,2,2.2,2,2.5,2
2012/4/30 7:46,2.2,2,2.2,2,2.7,2
2012/4/30 7:47,2.3,2,2.3,2,3.6,4
2012/4/30 7:48,2.3,2,2.3,2,3.3,4
2012/4/30 7:49,2.3,2,2.3,2,2.5,1
2012/4/30 7:50,2.2,2,2.3,2,2.9,3
2012/4/30 7:51,2.1,2,2.2,2,3,3
2012/4/30 7:52,2.1,2,2.1,2,3.3,3
2012/4/30 7:53,1.9,3,2.1,2,2.4,3
2012/4/30 7:54,2,3,2,2,2.7,2
2012/4/30 7:55,1.9,3,2,2,2.5,3
2012/4/30 7:56,1.8,3,1.9,2,1.9,3
2012/4/30 7:57,1.7,3,1.8,2,1.8,3
2012/4/30 7:58,1.7,2,1.7,2,2.5,3
2012/4/30 7:59,1.7,3,1.7,2,2.4,3
2012/4/30 8:00,1.7,3,1.7,2,2.4,3
2012/4/30 8:01,1.7,3,1.7,2,2.5,3
2012/4/30 8:02,1.6,3,1.7,2,2.6,3
2012/4/30 8:03,1.7,3,1.7,3,2.2,3
2012/4/30 8:04,1.7,3,1.7,3,2.2,3
2012/4/30 8:05,1.7,3,1.7,3,2.1,2
2012/4/30 8:06,1.7,3,1.7,3,2.2,4
2012/4/30 8:07,1.6,3,1.7,3,1.3,3
2012/4/30 8:08,1.5,3,1.6,2,1.4,3
2012/4/30 8:09,1.5,3,1.5,3,2.1,3
2012/4/30 8:10,1.4,3,1.5,3,2,3
2012/4/30 8:11,1.4,3,1.4,3,3,3
2012/4/30 8:12,1.4,3,1.4,3,2.1,2
2012/4/30 8:13,1.4,3,1.4,3,2.9,3
2012/4/30 8:14,1.4,3,1.4,3,2.5,3
2012/4/30 8:15,1.5,3,1.5,3,1.9,3
2012/4/30 8:16,1.5,3,1.5,3,2.1,3
2012/4/30 8:17,1.5,3,1.5,3,1.3,3
2012/4/30 8:18,1.4,3,1.5,3,1.8,4
2012/4/30 8:19,1.4,3,1.5,3,1.9,3
2012/4/30 8:20,1.4,3,1.4,3,2.5,2
2012/4/30 8:21,1.4,3,1.4,3,2.5,3
2012/4/30 8:22,1.4,3,1.5,3,2.4,3
2012/4/30 8:23,1.4,3,1.4,3,1.9,5
2012/4/30 8:24,1.3,3,1.3,3,1.6,4
2012/4/30 8:25,1.2,3,1.3,3,1.4,3
2012/4/30 8:26,1.2,3,1.2,3,1.6,3
2012/4/30 8:27,1.3,4,1.3,3,1.9,5
2012/4/30 8:28,1.4,4,1.4,3,3.2,4
2012/4/30 8:29,1.5,4,1.5,3,2.2,3
2012/4/30 8:30,1.6,4,1.6,4,3.3,3
2012/4/30 8:31,1.6,4,1.6,4,3.2,3
2012/4/30 8:32,1.6,4,1.6,4,3,3
2012/4/30 8:33,1.7,3,1.7,3,3.9,1
2012/4/30 8:34,1.8,3,1.8,3,3.3,2
2012/4/30 8:35,1.9,3,1.9,3,2.7,2
2012/4/30 8:36,1.9,3,1.9,3,2.2,4
2012/4/30 8:37,1.9,3,2,3,1.8,4
2012/4/30 8:38,1.8,3,1.9,3,2,3
2012/4/30 8:39,1.7,3,1.8,3,1.1,3
2012/4/30 8:40,1.6,2,1.7,3,1.8,1
2012/4/30 8:41,1.4,2,1.6,3,1.6,16
2012/4/30 8:42,1.4,2,1.4,3,2,16
2012/4/30 8:43,1.4,2,1.4,3,2.5,3
2012/4/30 8:44,1.4,2,1.4,3,3,3
2012/4/30 8:45,1.4,2,1.4,3,3.1,3
2012/4/30 8:46,1.4,2,1.4,3,2.2,2
2012/4/30 8:47,1.5,2,1.5,3,2.1,3
2012/4/30 8:48,1.4,2,1.5,3,1,6
2012/4/30 8:49,1.5,2,1.5,3,2.1,2
2012/4/30 8:50,1.5,2,1.5,2,3.1,1
2012/4/30 8:51,1.6,3,1.6,3,3.2,3
2012/4/30 8:52,1.8,3,1.8,3,3.1,2
2012/4/30 8:53,1.8,3,1.8,3,3,3
2012/4/30 8:54,1.7,3,1.8,3,2.7,5
2012/4/30 8:55,1.6,3,1.7,3,2.2,5
2012/4/30 8:56,1.7,3,1.7,3,3.1,4
2012/4/30 8:57,1.7,3,1.7,3,3,5
2012/4/30 8:58,1.8,3,1.8,3,2.2,4
2012/4/30 8:59,1.9,4,1.9,4,2.1,3
2012/4/30 9:00,1.9,4,1.9,4,2.9,2
2012/4/30 9:01,1.8,4,1.9,4,2.9,3
2012/4/30 9:02,1.8,4,1.8,4,2.9,4
2012/4/30 9:03,1.8,4,1.8,4,2.6,3
2012/4/30 9:04,1.7,4,1.8,4,2.2,3
2012/4/30 9:05,1.7,3,1.7,4,2.2,4
2012/4/30 9:06,1.6,3,1.7,4,2,4
2012/4/30 9:07,1.5,4,1.6,4,1.5,4
2012/4/30 9:08,1.5,4,1.5,4,2.4,6
2012/4/30 9:09,1.5,4,1.5,4,2.6,4
2012/4/30 9:10,1.5,4,1.5,4,2.1,4
2012/4/30 9:11,1.4,4,1.5,4,3,5
2012/4/30 9:12,1.4,4,1.4,4,2.7,3
2012/4/30 9:13,1.4,4,1.4,4,3.6,2
2012/4/30 9:14,1.6,4,1.6,4,3.2,4
2012/4/30 9:15,1.7,4,1.7,3,3.5,5
2012/4/30 9:16,1.8,4,1.8,4,3.1,4
2012/4/30 9:17,2,4,2,4,3.2,3
2012/4/30 9:18,2.1,4,2.1,4,3,3
2012/4/30 9:19,2,4,2.1,4,2,4
2012/4/30 9:20,2.1,4,2.1,4,2.6,5
2012/4/30 9:21,2.1,4,2.1,4,2.2,5
2012/4/30 9:22,2,4,2.1,4,1.8,5
2012/4/30 9:23,1.9,4,2,4,1.5,3
2012/4/30 9:24,1.8,4,1.9,4,2.1,3
2012/4/30 9:25,1.7,4,1.8,4,3.5,4
2012/4/30 9:26,1.7,4,1.7,4,2.9,3
2012/4/30 9:27,1.7,4,1.7,4,3.7,3
2012/4/30 9:28,1.8,4,1.8,4,3.1,3
2012/4/30 9:29,1.9,4,1.9,4,3.6,3
2012/4/30 9:30,2,4,2,4,4.2,4
2012/4/30 9:31,2.2,3,2.2,3,3.7,3
2012/4/30 9:32,2.2,3,2.2,3,2.9,2
2012/4/30 9:33,2.3,3,2.3,3,2.6,3
2012/4/30 9:34,2.3,3,2.3,3,2.2,5
2012/4/30 9:35,2.2,4,2.3,3,1.9,5
2012/4/30 9:36,2.1,4,2.2,3,1.8,5
2012/4/30 9:37,2.1,4,2.1,3,3.1,4
2012/4/30 9:38,2,4,2.1,3,2.7,4
2012/4/30 9:39,1.9,4,2,3,2.6,3
2012/4/30 9:40,1.7,4,1.9,3,1.6,2
2012/4/30 9:41,1.5,4,1.7,3,1.5,2
2012/4/30 9:42,1.5,4,1.5,3,1.8,4
2012/4/30 9:43,1.4,4,1.5,3,1.4,5
2012/4/30 9:44,1.5,4,1.5,3,2.9,4
2012/4/30 9:45,1.5,4,1.5,4,2.2,3
2012/4/30 9:46,1.6,4,1.6,4,3.2,4
2012/4/30 9:47,1.6,4,1.6,4,2.6,5
2012/4/30 9:48,1.5,4,1.6,4,2.2,4
2012/4/30 9:49,1.4,4,1.5,4,1.8,6
2012/4/30 9:50,1.4,4,1.4,4,1.9,3
2012/4/30 9:51,1.4,4,1.4,4,1.5,5
2012/4/30 9:52,1.4,4,1.5,4,2.1,4
2012/4/30 9:53,1.5,4,1.5,4,2.4,5
2012/4/30 9:54,1.5,4,1.5,4,2.2,4
2012/4/30 9:55,1.5,4,1.5,4,3.2,4
2012/4/30 9:56,1.4,4,1.5,4,2.9,4
2012/4/30 9:57,1.4,4,1.4,4,2.2,5
2012/4/30 9:58,1.4,4,1.4,4,2.4,2
2012/4/30 9:59,1.4,4,1.4,4,1.8,3
2012/4/30 10:00,1.5,4,1.5,4,2.7,1
2012/4/30 10:01,1.5,4,1.5,4,2.5,4
2012/4/30 10:02,1.5,4,1.6,4,2.6,3
2012/4/30 10:03,1.5,4,1.5,4,1.6,2
2012/4/30 10:04,1.5,4,1.5,4,2.4,6
2012/4/30 10:05,1.5,4,1.5,4,2.5,5
2012/4/30 10:06,1.5,4,1.5,4,2.7,6
2012/4/30 10:07,1.5,4,1.5,4,2.5,6
2012/4/30 10:08,1.5,4,1.5,4,1.9,6
2012/4/30 10:09,1.5,5,1.5,4,1.9,6
2012/4/30 10:10,1.6,5,1.6,4,2.5,5
2012/4/30 10:11,1.5,5,1.6,4,1.9,5
2012/4/30 10:12,1.5,5,1.5,5,1.4,6
2012/4/30 10:13,1.5,6,1.5,5,2.1,6
2012/4/30 10:14,1.6,6,1.6,5,2.5,5
2012/4/30 10:15,1.6,6,1.6,5,2.6,4
2012/4/30 10:16,1.5,5,1.6,5,2.4,4
2012/4/30 10:17,1.4,5,1.5,5,2,5
2012/4/30 10:18,1.4,5,1.4,5,1.9,3
2012/4/30 10:19,1.4,5,1.4,5,2.2,3
2012/4/30 10:20,1.4,4,1.5,5,2.1,3
2012/4/30 10:21,1.4,4,1.4,6,2.2,3
2012/4/30 10:22,1.5,4,1.5,6,3,4
2012/4/30 10:23,1.5,4,1.5,6,2.6,4
2012/4/30 10:24,1.4,3,1.5,6,2,16
2012/4/30 10:25,1.4,3,1.4,5,1.8,3
2012/4/30 10:26,1.4,3,1.4,5,2.5,5
2012/4/30 10:27,1.5,3,1.5,5,2.6,5
2012/4/30 10:28,1.5,3,1.5,5,2.2,5
2012/4/30 10:29,1.5,4,1.5,5,2.7,6
2012/4/30 10:30,1.6,4,1.6,4,3.5,6
2012/4/30 10:31,1.6,4,1.6,4,2.5,5
2012/4/30 10:32,1.5,5,1.6,4,1.8,8
2012/4/30 10:33,1.5,5,1.5,4,2,6
2012/4/30 10:34,1.5,6,1.5,4,2.5,8
2012/4/30 10:35,1.4,6,1.5,4,0.8,4
2012/4/30 10:36,1.2,6,1.4,4,0.6,14
2012/4/30 10:37,1.1,6,1.2,4,0.8,14
2012/4/30 10:38,1.1,7,1.1,4,2,8
2012/4/30 10:39,1.1,7,1.1,4,2.5,7
2012/4/30 10:40,1,7,1.1,4,2.5,8
2012/4/30 10:41,1,8,1,4,3.3,9
2012/4/30 10:42,1.1,8,1.1,5,2.5,8
2012/4/30 10:43,1.2,8,1.2,5,3.3,8
2012/4/30 10:44,1.3,8,1.3,6,3.2,7
2012/4/30 10:45,1.4,8,1.4,6,2.1,7
2012/4/30 10:46,1.5,8,1.5,8,2.4,6
2012/4/30 10:47,1.5,7,1.5,8,0.6,8
2012/4/30 10:48,1.4,8,1.5,8,0.9,10
2012/4/30 10:49,1.3,8,1.4,8,1.6,10
2012/4/30 10:50,1.2,8,1.3,8,2,9
2012/4/30 10:51,1.2,8,1.3,8,2.2,8
2012/4/30 10:52,1.3,8,1.3,8,3.2,8
2012/4/30 10:53,1.4,8,1.4,8,3.1,4
2012/4/30 10:54,1.3,7,1.4,8,2.4,4
2012/4/30 10:55,1.3,7,1.3,8,1.8,5
2012/4/30 10:56,1.3,7,1.3,8,2.4,5
2012/4/30 10:57,1.4,7,1.4,7,2.5,6
2012/4/30 10:58,1.5,6,1.5,7,2.2,6
2012/4/30 10:59,1.6,6,1.6,6,2.6,4
2012/4/30 11:00,1.8,6,1.8,6,3.5,6
2012/4/30 11:01,1.9,5,1.9,5,4.8,5
2012/4/30 11:02,2,5,2,5,4.1,5
2012/4/30 11:03,2,5,2,5,3.7,6
2012/4/30 11:04,2.1,6,2.1,5,4.3,7
2012/4/30 11:05,2.3,6,2.3,6,4.9,8
2012/4/30 11:06,2.6,6,2.6,6,5.1,8
2012/4/30 11:07,2.7,6,2.7,6,4.5,7
2012/4/30 11:08,2.7,7,2.7,6,3.1,7
2012/4/30 11:09,2.6,7,2.7,6,2.2,6
2012/4/30 11:10,2.5,7,2.6,6,2.2,6
2012/4/30 11:11,2.3,7,2.5,6,1.8,6
2012/4/30 11:12,2.2,7,2.3,6,1.8,4
2012/4/30 11:13,2.1,7,2.2,6,1.8,4
2012/4/30 11:14,1.9,7,2.1,6,2.2,7
2012/4/30 11:15,1.7,7,1.9,6,2.6,8
2012/4/30 11:16,1.5,7,1.7,6,3.1,7
2012/4/30 11:17,1.4,6,1.5,6,3.2,6
2012/4/30 11:18,1.5,6,1.5,7,3.3,5
2012/4/30 11:19,1.5,6,1.6,7,3.5,4
2012/4/30 11:20,1.4,6,1.5,7,2.1,9
2012/4/30 11:21,1.4,6,1.4,7,3.1,6
2012/4/30 11:22,1.5,6,1.5,7,3,6
2012/4/30 11:23,1.5,6,1.5,7,2.5,6
2012/4/30 11:24,1.6,6,1.6,7,3.7,6
2012/4/30 11:25,1.7,6,1.7,7,3.6,6
2012/4/30 11:26,1.6,6,1.7,6,1.4,6
2012/4/30 11:27,1.5,6,1.6,6,1.9,5
2012/4/30 11:28,1.4,6,1.5,6,1.3,3
2012/4/30 11:29,1.3,6,1.3,6,1.4,9
2012/4/30 11:30,1.3,6,1.3,6,2.7,9
2012/4/30 11:31,1.3,6,1.4,6,1.3,9
2012/4/30 11:32,1.2,7,1.3,6,2.2,9
2012/4/30 11:33,1.1,7,1.2,6,2.5,9
2012/4/30 11:34,1.1,7,1.2,6,3.8,8
2012/4/30 11:35,1.1,7,1.1,6,3.6,8
2012/4/30 11:36,1.3,8,1.3,6,3.3,7
2012/4/30 11:37,1.3,8,1.3,6,3.1,8
2012/4/30 11:38,1.4,8,1.4,6,1.9,9
2012/4/30 11:39,1.5,8,1.5,8,1.3,9
2012/4/30 11:40,1.4,8,1.5,8,1.3,8
2012/4/30 11:41,1.4,8,1.4,8,1.3,9
2012/4/30 11:42,1.3,8,1.4,8,0.6,6
2012/4/30 11:43,1.2,8,1.2,8,0.3,6
2012/4/30 11:44,1.1,8,1.2,8,1.4,8
2012/4/30 11:45,1,8,1.1,8,1.3,8
2012/4/30 11:46,0.9,8,1,8,3,10
2012/4/30 11:47,0.9,8,0.9,8,3.5,9